Coolangatta Airport Aws, Australia

10:50 AM AEDT on December 08, 2016 (GMT +1100)
Coolangatta

Weather History for YBCG - October, 2013

Change the Weather History Date:

Sunday, October 13, 2013

  Actual Average Record
Temperature  
Mean Temperature 75 °F -  
Max Temperature 82 °F - - ()
Min Temperature 68 °F - - ()
Cooling Degree Days 10    
Growing Degree Days 25 (Base 50)    
Moisture  
Dew Point 63 °F    
Average Humidity 70    
Maximum Humidity 88    
Minimum Humidity 41    
Precipitation  
Precipitation 0.00 in - - ()
Sea Level Pressure  
Sea Level Pressure 29.86 in    
Wind  
Wind Speed 15 mph ()    
Max Wind Speed 26 mph    
Max Gust Speed 36 mph    
Visibility 6.0 miles    
Events      
T = Trace of Precipitation, MM = Missing Value Source: Averaged Metar Reports

Daily Weather History Graph

Daily Weather History Graph

Search for Another Location

Airport or City:

Trip Planner

Search our weather history database for the weather conditions in past years. The results will help you decide how hot, cold, wet, or windy it might be!

Date:

Astronomy

Oct. 13, 2013 Rise Set
Actual Time 5:11 AM AEST 5:53 PM AEST
Civil Twilight 4:48 AM AEST 6:16 PM AEST
Nautical Twilight 4:20 AM AEST 6:44 PM AEST
Astronomical Twilight 3:51 AM AEST 7:13 PM AEST
Moon 12:12 PM AEST (10/13) 12:50 AM AEST (10/13)
Length of Visible Light 13h 28m
Length of Day
12h 41m
Waxing Gibbous, 63% of the Moon is Illuminated
Oct 13
Waxing Gibbous
Oct 19
Full
Oct 27
Last Quarter
Nov 3
New
Nov 10
First Quarter

Hourly Weather History & Observations

Time (AEST) Temp. Heat Index Dew Point Humidity Pressure Visibility Wind Dir Wind Speed Gust Speed Precip Events Conditions
12:00 AM 69 °F - 64 °F 81% 30.01 in - NNW 8.1 mph - -  
12:00 AM 69.8 °F - 64.4 °F 83% 30.01 in 6.2 mi NNW 8.1 mph - N/A   Unknown
12:30 AM 69.8 °F - 62.6 °F 78% 30.01 in 6.2 mi NW 8.1 mph - N/A   Unknown
1:00 AM 69.8 °F - 62.6 °F 78% 29.98 in 6.2 mi NNW 9.2 mph - N/A   Unknown
1:30 AM 69.8 °F - 60.8 °F 73% 29.95 in 6.2 mi NNW 13.8 mph - N/A   Unknown
2:00 AM 69.8 °F - 60.8 °F 73% 29.92 in 6.2 mi North 17.3 mph - N/A   Unknown
2:30 AM 69.8 °F - 62.6 °F 78% 29.92 in 6.2 mi NNW 16.1 mph - N/A   Unknown
2:52 AM 69.8 °F - 60.8 °F 73% 29.92 in 6.2 mi NNW 18.4 mph 29.9 mph N/A   Unknown
3:00 AM 70 °F - 61 °F 66% 29.92 in - NNW 16.1 mph - -  
3:00 AM 69.8 °F - 60.8 °F 73% 29.92 in 6.2 mi NNW 16.1 mph - N/A   Unknown
3:30 AM 69.8 °F - 60.8 °F 73% 29.89 in 6.2 mi NNW 16.1 mph - N/A   Unknown
4:00 AM 69.8 °F - 60.8 °F 73% 29.89 in 6.2 mi NNW 17.3 mph - N/A   Unknown
4:31 AM 69.8 °F - 59.0 °F 68% 29.92 in 6.2 mi NNW 18.4 mph 29.9 mph N/A   Unknown
5:00 AM 68.0 °F - 59.0 °F 73% 29.92 in 6.2 mi NNW 19.6 mph - N/A   Unknown
5:30 AM 69.8 °F - 59.0 °F 68% 29.92 in 6.2 mi NNW 18.4 mph - N/A   Unknown
6:00 AM 69 °F - 58 °F 61% 29.94 in - NNW 17.3 mph - -  
6:00 AM 69.8 °F - 59.0 °F 68% 29.95 in 6.2 mi NNW 17.3 mph - N/A   Unknown
6:30 AM 69.8 °F - 59.0 °F 68% 29.95 in 6.2 mi NNW 18.4 mph - N/A   Unknown
7:00 AM 71.6 °F - 59.0 °F 64% 29.95 in 6.2 mi NNW 19.6 mph - N/A   Unknown
7:18 AM 71.6 °F - 59.0 °F 64% 29.95 in 6.2 mi NNW 19.6 mph 31.1 mph N/A   Unknown
8:00 AM 75.2 °F - 59.0 °F 57% 29.95 in 6.2 mi NNW 19.6 mph - N/A   Unknown
8:33 AM 77.0 °F - 59.0 °F 54% 29.92 in 6.2 mi NNW 21.9 mph 33.4 mph N/A   Unknown
9:00 AM 78 °F - 58 °F 41% 29.94 in - NNW 20.7 mph - -  
9:01 AM 77.0 °F - 57.2 °F 50% 29.92 in 6.2 mi NNW 20.7 mph 32.2 mph N/A   Unknown
9:30 AM 78.8 °F - 59.0 °F 51% 29.92 in 6.2 mi NW 17.3 mph - N/A   Unknown
10:00 AM 82.4 °F 82.5 °F 59.0 °F 45% 29.89 in 6.2 mi NNW 18.4 mph - N/A   Unknown
10:30 AM 80.6 °F 81.1 °F 59.0 °F 48% 29.89 in 6.2 mi North 21.9 mph - N/A   Unknown
11:00 AM 77.0 °F - 62.6 °F 61% 29.86 in 6.2 mi North 24.2 mph - N/A   Unknown
11:30 AM 78.8 °F - 64.4 °F 61% 29.86 in 6.2 mi North 23.0 mph - N/A   Unknown
12:00 PM 79 °F - 64 °F 50% 29.85 in - North 24.2 mph - -  
12:00 PM 78.8 °F - 64.4 °F 61% 29.83 in 6.2 mi North 24.2 mph - N/A   Unknown
12:30 PM 77.0 °F - 64.4 °F 65% 29.83 in 6.2 mi North 25.3 mph - N/A   Unknown
1:00 PM 77.0 °F - 64.4 °F 65% 29.80 in 6.2 mi North 25.3 mph - N/A   Unknown
1:30 PM 75.2 °F - 64.4 °F 69% 29.80 in 6.2 mi North 24.2 mph - N/A   Unknown
2:00 PM 77.0 °F - 64.4 °F 65% 29.77 in 6.2 mi North 26.5 mph - N/A   Unknown
2:30 PM 75.2 °F - 64.4 °F 69% 29.77 in 6.2 mi North 25.3 mph - N/A   Unknown
2:58 PM 77.0 °F - 66.2 °F 69% 29.77 in 6.2 mi North 24.2 mph 35.7 mph N/A   Unknown
3:00 PM 77.0 °F - 64.4 °F 65% 29.77 in 6.2 mi North 24.2 mph - N/A   Unknown
3:30 PM 75.2 °F - 64.4 °F 69% 29.77 in 6.2 mi North 25.3 mph - N/A   Unknown
4:00 PM 73.4 °F - 64.4 °F 73% 29.77 in 6.2 mi North 26.5 mph - N/A   Unknown
4:30 PM 75.2 °F - 64.4 °F 69% 29.77 in 6.2 mi North 24.2 mph - N/A   Unknown
5:00 PM 73.4 °F - 64.4 °F 73% 29.77 in 6.2 mi North 21.9 mph - N/A   Unknown
5:30 PM 71.6 °F - 64.4 °F 78% 29.80 in 6.2 mi North 18.4 mph - N/A   Unknown
6:00 PM 72 °F - 65 °F 74% 29.79 in - North 20.7 mph - -  
6:00 PM 71.6 °F - 66.2 °F 83% 29.77 in 6.2 mi North 20.7 mph - N/A   Unknown
6:30 PM 71.6 °F - 66.2 °F 83% 29.77 in 6.2 mi North 20.7 mph - N/A   Unknown
7:00 PM 71.6 °F - 64.4 °F 78% 29.77 in 6.2 mi North 19.6 mph - N/A   Unknown
7:30 PM 71.6 °F - 66.2 °F 83% 29.77 in 6.2 mi North 19.6 mph - N/A   Unknown
8:00 PM 71.6 °F - 64.4 °F 78% 29.77 in 6.2 mi North 17.3 mph - N/A   Unknown
8:30 PM 69.8 °F - 66.2 °F 88% 29.77 in 5.6 mi North 15.0 mph - N/A   Unknown
9:00 PM 70 °F - 65 °F 80% 29.78 in 5 mi North 15.0 mph - -  
9:00 PM 69.8 °F - 64.4 °F 83% 29.77 in 5.0 mi North 15.0 mph - N/A   Unknown
9:30 PM 69.8 °F - 64.4 °F 83% 29.80 in 5.0 mi North 12.7 mph - N/A   Unknown
10:00 PM 69.8 °F - 64.4 °F 83% 29.80 in 5.0 mi North 10.4 mph - N/A   Unknown
10:30 PM 71.6 °F - 66.2 °F 83% 29.80 in 5.0 mi North 13.8 mph - N/A   Unknown
11:00 PM 73.4 °F - 64.4 °F 73% 29.80 in 6.2 mi NNW 10.4 mph - N/A   Scattered Clouds
11:18 PM 71.6 °F - 64.4 °F 78% 29.80 in 3.7 mi North 9.2 mph - N/A   Unknown
11:30 PM 71.6 °F - 64.4 °F 78% 29.80 in 3.7 mi North 10.4 mph - N/A   Scattered Clouds
11:53 PM 71.6 °F - 64.4 °F 78% 29.77 in 5.6 mi NNW 10.4 mph - N/A   Scattered Clouds